When you browse on this site, cookies collect data to enhance your experience and personalize the content and advertising you see.
Visit our Privacy Policy to learn more. By continuing to use the site, you agree to this use of cookies and data.
  • In Hungary
  • List of Countries
  • For 7 days
  • Water Temperature
  • Satellite Maps
  • Weather Map
  • News
  • Weather Widgets
  • user-avatar
    Login

    Hourly Weather Chodavaram

    Today, 18 November, Sunday

    Time Temperature Precipitation Wind Pressure Humidity
    00:00 +25°C° 0 mm 1 mps 740 mmHg 91%
    01:00 +24°C° 0 mm 1 mps 740 mmHg 92%
    02:00 +24°C° 0 mm 1 mps 740 mmHg 92%
    03:00 +24°C° 0 mm 1 mps 740 mmHg 92%
    04:00 +24°C° 0 mm 1 mps 740 mmHg 92%
    05:00 +24°C° 0 mm 1 mps 740 mmHg 93%
    06:00 +26°C° 0 mm 1 mps 741 mmHg 87%
    07:00 +27°C° 0 mm 1 mps 741 mmHg 81%
    08:00 +29°C° 0 mm 1 mps 741 mmHg 74%
    09:00 +31°C° 0 mm 1 mps 741 mmHg 66%
    10:00 +33°C° 0 mm 1 mps 741 mmHg 59%
    11:00 +35°C° 0 mm 1 mps 742 mmHg 51%
    12:00 +34°C° 0.4 mm 1 mps 741 mmHg 52%
    13:00 +34°C° 0.4 mm 1 mps 740 mmHg 53%
    14:00 +34°C° 0.4 mm 1 mps 739 mmHg 54%
    15:00 +32°C° 0.7 mm 1 mps 739 mmHg 62%
    16:00 +30°C° 0.7 mm 1 mps 739 mmHg 69%
    17:00 +28°C° 0.7 mm 1 mps 739 mmHg 77%
    18:00 +27°C° 0.1 mm 1 mps 740 mmHg 80%
    19:00 +26°C° 0.1 mm 1 mps 740 mmHg 84%
    20:00 +26°C° 0.1 mm 1 mps 741 mmHg 87%
    21:00 +25°C° 0 mm 1 mps 741 mmHg 88%
    22:00 +25°C° 0 mm 1 mps 741 mmHg 90%
    23:00 +24°C° 0 mm 1 mps 741 mmHg 91%

    Tomorrow, 19 November, Monday

    Time Temperature Precipitation Wind Pressure Humidity
    00:00 +24°C° 0 mm 1 mps 741 mmHg 92%
    01:00 +24°C° 0 mm 1 mps 741 mmHg 92%
    02:00 +24°C° 0 mm 1 mps 740 mmHg 92%
    03:00 +23°C° 0 mm 1 mps 740 mmHg 91%
    04:00 +23°C° 0 mm 1 mps 740 mmHg 91%
    05:00 +23°C° 0 mm 1 mps 741 mmHg 91%
    06:00 +25°C° 0 mm 1 mps 741 mmHg 84%
    07:00 +27°C° 0 mm 1 mps 742 mmHg 77%
    08:00 +28°C° 0 mm 1 mps 743 mmHg 71%
    09:00 +30°C° 0 mm 1 mps 743 mmHg 64%
    10:00 +32°C° 0 mm 2 mps 743 mmHg 57%
    11:00 +34°C° 0 mm 2 mps 743 mmHg 50%
    12:00 +35°C° 0 mm 2 mps 742 mmHg 48%
    13:00 +35°C° 0 mm 2 mps 741 mmHg 47%
    14:00 +35°C° 0 mm 2 mps 740 mmHg 46%
    15:00 +32°C° 0 mm 2 mps 740 mmHg 53%
    16:00 +30°C° 0 mm 2 mps 740 mmHg 60%
    17:00 +28°C° 0 mm 2 mps 740 mmHg 67%
    18:00 +27°C° 0 mm 2 mps 741 mmHg 72%
    19:00 +27°C° 0 mm 2 mps 742 mmHg 78%
    20:00 +26°C° 0 mm 1 mps 742 mmHg 84%
    21:00 +25°C° 0 mm 1 mps 742 mmHg 86%
    22:00 +25°C° 0 mm 1 mps 742 mmHg 89%
    23:00 +24°C° 0 mm 1 mps 742 mmHg 91%

    Day after tomorrow, 20 November, Tuesday

    Time Temperature Precipitation Wind Pressure Humidity
    00:00 +24°C° 0 mm 1 mps 742 mmHg 91%
    01:00 +24°C° 0 mm 1 mps 741 mmHg 91%
    02:00 +24°C° 0 mm 1 mps 741 mmHg 92%
    03:00 +24°C° 0 mm 1 mps 741 mmHg 91%
    04:00 +23°C° 0 mm 1 mps 741 mmHg 90%
    05:00 +23°C° 0 mm 1 mps 741 mmHg 89%
    06:00 +25°C° 0 mm 1 mps 742 mmHg 83%
    07:00 +26°C° 0 mm 1 mps 743 mmHg 77%
    08:00 +27°C° 0 mm 1 mps 743 mmHg 71%
    09:00 +29°C° 0 mm 1 mps 743 mmHg 65%
    10:00 +31°C° 0 mm 1 mps 743 mmHg 59%
    11:00 +32°C° 0 mm 1 mps 743 mmHg 53%
    12:00 +33°C° 0 mm 1 mps 742 mmHg 51%
    13:00 +33°C° 0 mm 1 mps 741 mmHg 50%
    14:00 +33°C° 0 mm 1 mps 740 mmHg 48%
    15:00 +31°C° 0 mm 1 mps 740 mmHg 54%
    16:00 +30°C° 0 mm 1 mps 740 mmHg 61%
    17:00 +28°C° 0 mm 1 mps 740 mmHg 67%
    18:00 +27°C° 0 mm 1 mps 741 mmHg 72%
    19:00 +26°C° 0 mm 1 mps 742 mmHg 77%
    20:00 +25°C° 0 mm 1 mps 742 mmHg 81%
    21:00 +25°C° 0 mm 1 mps 742 mmHg 84%
    22:00 +25°C° 0 mm 1 mps 742 mmHg 86%
    23:00 +24°C° 0 mm 1 mps 742 mmHg 88%

    21 November, Wednesday

    Time Temperature Precipitation Wind Pressure Humidity
    00:00 +24°C° 0 mm 1 mps 742 mmHg 88%
    01:00 +24°C° 0 mm 1 mps 741 mmHg 89%
    02:00 +23°C° 0 mm 1 mps 741 mmHg 90%
    03:00 +23°C° 0 mm 1 mps 741 mmHg 90%
    04:00 +23°C° 0 mm 1 mps 741 mmHg 89%
    05:00 +23°C° 0 mm 1 mps 741 mmHg 89%
    06:00 +25°C° 0 mm 1 mps 742 mmHg 82%
    07:00 +26°C° 0 mm 1 mps 743 mmHg 76%
    08:00 +28°C° 0 mm 1 mps 743 mmHg 69%
    09:00 +30°C° 0 mm 1 mps 743 mmHg 63%
    10:00 +31°C° 0 mm 1 mps 743 mmHg 56%
    11:00 +33°C° 0 mm 1 mps 743 mmHg 50%
    12:00 +33°C° 0 mm 1 mps 742 mmHg 49%
    13:00 +33°C° 0 mm 1 mps 741 mmHg 48%
    14:00 +32°C° 0 mm 2 mps 740 mmHg 47%
    15:00 +31°C° 0 mm 1 mps 740 mmHg 52%
    16:00 +29°C° 0 mm 1 mps 740 mmHg 58%
    17:00 +28°C° 0 mm 1 mps 740 mmHg 64%
    18:00 +27°C° 0 mm 1 mps 741 mmHg 68%
    19:00 +26°C° 0 mm 1 mps 742 mmHg 72%
    20:00 +26°C° 0 mm 1 mps 742 mmHg 76%
    21:00 +25°C° 0 mm 1 mps 742 mmHg 79%
    22:00 +25°C° 0 mm 1 mps 742 mmHg 82%
    23:00 +24°C° 0 mm 1 mps 742 mmHg 85%

    22 November, Thursday

    Time Temperature Precipitation Wind Pressure Humidity
    00:00 +24°C° 0 mm 1 mps 742 mmHg 85%
    01:00 +24°C° 0 mm 1 mps 741 mmHg 84%
    02:00 +24°C° 0 mm 1 mps 741 mmHg 84%
    03:00 +24°C° 0 mm 1 mps 741 mmHg 82%
    04:00 +24°C° 0 mm 1 mps 742 mmHg 81%
    05:00 +24°C° 0 mm 1 mps 742 mmHg 80%
    06:00 +25°C° 0 mm 1 mps 742 mmHg 75%
    07:00 +26°C° 0 mm 1 mps 743 mmHg 70%
    08:00 +28°C° 0 mm 1 mps 744 mmHg 65%
    09:00 +30°C° 0 mm 1 mps 744 mmHg 58%
    10:00 +32°C° 0 mm 1 mps 743 mmHg 51%
    11:00 +33°C° 0 mm 1 mps 743 mmHg 44%
    12:00 +34°C° 0 mm 1 mps 742 mmHg 42%
    13:00 +34°C° 0 mm 1 mps 741 mmHg 40%
    14:00 +35°C° 0 mm 2 mps 741 mmHg 39%
    15:00 +32°C° 0 mm 2 mps 741 mmHg 46%
    16:00 +30°C° 0 mm 2 mps 741 mmHg 53%
    17:00 +28°C° 0 mm 2 mps 741 mmHg 61%
    18:00 +27°C° 0 mm 1 mps 742 mmHg 67%
    19:00 +26°C° 0 mm 1 mps 742 mmHg 73%
    20:00 +25°C° 0 mm 1 mps 743 mmHg 79%
    21:00 +25°C° 0 mm 1 mps 743 mmHg 82%
    22:00 +24°C° 0 mm 1 mps 743 mmHg 85%
    23:00 +24°C° 0 mm 1 mps 743 mmHg 88%

    23 November, Friday

    Time Temperature Precipitation Wind Pressure Humidity
    00:00 +23°C° 0 mm 1 mps 742 mmHg 89%
    01:00 +23°C° 0 mm 1 mps 742 mmHg 90%
    02:00 +23°C° 0 mm 1 mps 742 mmHg 91%
    03:00 +23°C° 0 mm 1 mps 742 mmHg 91%
    04:00 +23°C° 0 mm 1 mps 742 mmHg 91%
    05:00 +22°C° 0 mm 1 mps 742 mmHg 91%
    06:00 +24°C° 0 mm 1 mps 743 mmHg 83%
    07:00 +26°C° 0 mm 1 mps 744 mmHg 74%
    08:00 +28°C° 0 mm 1 mps 744 mmHg 66%
    09:00 +30°C° 0 mm 1 mps 744 mmHg 58%
    10:00 +31°C° 0 mm 1 mps 744 mmHg 50%
    11:00 +33°C° 0 mm 1 mps 743 mmHg 42%
    12:00 +33°C° 0 mm 1 mps 743 mmHg 39%
    13:00 +34°C° 0 mm 1 mps 742 mmHg 37%
    14:00 +34°C° 0 mm 1 mps 741 mmHg 34%
    15:00 +32°C° 0 mm 1 mps 741 mmHg 40%
    16:00 +30°C° 0 mm 1 mps 741 mmHg 45%
    17:00 +28°C° 0 mm 1 mps 741 mmHg 50%
    18:00 +26°C° 0 mm 1 mps 742 mmHg 54%
    19:00 +25°C° 0 mm 1 mps 742 mmHg 59%
    20:00 +24°C° 0 mm 1 mps 743 mmHg 63%
    21:00 +24°C° 0 mm 1 mps 743 mmHg 67%
    22:00 +23°C° 0 mm 1 mps 743 mmHg 71%
    23:00 +23°C° 0 mm 1 mps 742 mmHg 75%
    Show more